Torna al catalogo

METEOSAT 6

AttivoMeteoGEO
NORAD 22912·PAYLOAD·🇪🇺 EU

Lanciato Nov 20, 1993 da Guiana Space Centre

Loading…

TLE

AggiornatoSource: Space-Track

Epoca: Sep 14, 2026, 11:25 UTC

1 22912U 93073B   26257.47607428 -.00000020  00000-0  00000-0 0  9991
2 22912  14.5054   0.6473 0009196 234.0624 141.1948  0.98983945117904

Traccia METEOSAT 6 in tempo reale con AllMySat

Download on the App Store